SCP
-0 -0 -0 -0 0 0 0 0 0 0 0 0 0 0 0 0 0 0 0 0 0 0 0 0 0 0 0 0 0 0 0 0 0 0 0 0 0 0
0 0 0 0 0 0 0 0 0 0 0 0 0 0 0 0 0 0 0 0 0 0 0 0 0 0 0 0 0 0 0 0 0 0 0 0 0 0
0 0 0 0 0 0 0 0 0 0 0 0 0 0 0 0 0 0 0 0 0 0 0 0 0 0 0 0 0 0 0 0 0 0 0 0 0 0
0 0 0 0 0 0 0 0 0 0 0 0 0 0 0 0 0 0 0 0 0 0 0 0 0 0 0 0 0 0 0 0 0 0 0 0 0 0
0 0 0 0 0 0 0 0 0 0 0 0 0 0 0 0 0 0 0 0 0 0 0 0 0 0 0 0 0 0 0 0 0 0 0 0 0 0
0 0 0 0 0 0 0 0 0 0 0 0 0 0 0 0 0 0 0 0 0 0 0 0 0 0 0 0 0 0 0 0 0 0 0 0 0 0
0 0 0 0 0 0 0 0 0 0 0 0 0 0 0 0 0 0 0 0 0 0 0 0 0 0 0 0 0 0 0 0 0 0 0 0 0 0
0 0 0 0 0 0 0 0 0 0 0 0 0 0 0 0 0 0 0 0 0 0 0 0 0 0 0 0 0 0 0 0 0 0 0 0 0 0
0 0 0 0 0 0 0 0 0 0 0 0 0 0 0 0 0 0 0 0 0 0 0 0 0 0 0 0 0 0 0 0 0 0 0 0 0 0
0 0 0 0 0 0 0 0 0 0 0 0 0 0 0 0 0 0 0 0 0 0 0 0 0 0 0 0 0 0 0 0 0 0 0 0 0 0
0 0 0 0 0 -0 0 0 0 0 0 0 0 0 0 0 0 0 0 0 0 0 0 0 0 0 0 0 0 0 0 0 0 0 0 0 0 0
0 0 0 0 -0 -0 0 0 0 0 0 0 0 0 0 0 0 0 0 0 0 0 0 0 0 0 0 0 0 0 0 0 0 0 0 0 0 0
0 0 0 0 -0 -0 -0 0 0 0 0 0 0 0 0 0 0 0 0 0 0 0 0 0 0 0 0 0 0 0 0 0 0 0 0 0 0 0
0 0 0 0 0 -0 0 0 0 0 0 0 0 0 0 0 0 0 0 0 0 0 0 0 0 0 0 0 0 0 0 0 0 0 0 0 0 0
0 0 0 -0 0 0 0 -0 0 0 0 0 0 0 0 0 0 0 0 0 0 0 0 0 0 0 0 0 0 0 0 0 0 0 0 0 0 0
0 0 0 0 0 0 0 0 0 0 0 0 0 0 0 0 0 0 0 0 0 0 0 0 0 0 0 0 0 0 0 0 0 0 0 0 0 0
0 0 0 0 -0 0 0 0 0 0 0 0 0 0 0 0 0 0 0 0 0 0 0 0 0 0 0 0 0 0 0 0 0 0 0 0 0 0
0 0 0 0 0 0 -0 0 0 0 0 0 0 0 0 0 0 0 0 0 0 0 0 0 0 0 0 0 0 0 0 0 0 0 0 0 0 0
0 0 0 0 0 0 0 -0 -0 0 0 0 0 0 0 0 0 0 0 0 0 0 0 0 0 0 0 0 0 0 0 0 0 0 0 0 0 0
0 0 0 0 0 0 0 0 0 0 0 0 0 0 0 0 0 0 0 0 0 0 0 0 0 0 0 0 -0 0 0 0 0 0 0 0 -0 0
0 0 0 0 0 0 0 0 0 -0 -0 0 0 -0 -0 -0 0 0 0 0 0 0 0 0 0 0 -0 -0 0 0 0 0 0 0 -0 -0 -0 -0
0 0 0 0 0 0 0 0 0 0 -0 -0 -0 0 0 -0 -0 -0 -0 -0 0 -0 -0 -0 0 0 0 -0 -0 -0 -0 0 -0 0 0 0 -0 -0
0 0 0 0 0 0 0 0 -0 -0 -0 -0 -0 -0 -0 0 0 -0 -0 -0 -0 -0 -0 -0 0 0 0 -0 -0 -0 -0 -0 -0 -0 -0 -0 -0 -0
Wind_Speed_500mb
47 50 48 48 32 22 11 2 6 10 34 62 59 70 85 83 84 84 67 113 105 100 96 88 79 70 66 65 67 68 70 69 67 64 62 59 56 52
54 59 55 56 39 26 19 17 18 24 27 52 72 81 93 78 57 34 57 124 104 101 96 87 78 70 63 59 62 63 64 66 66 65 62 59 56 53
58 65 64 60 52 36 32 33 38 49 65 69 74 75 84 84 57 39 89 114 100 97 92 84 76 70 62 56 55 56 57 57 58 60 61 59 57 54
63 67 70 67 59 44 35 38 46 52 66 69 82 76 78 70 40 38 93 106 96 88 88 82 76 69 62 57 53 51 50 49 50 53 54 55 55 54
62 65 72 76 69 56 41 36 43 53 68 64 81 81 76 70 48 35 77 103 90 84 82 80 74 69 63 59 53 50 47 45 44 44 44 47 49 50
65 64 68 74 78 67 48 47 51 51 58 53 64 71 72 69 49 41 59 101 95 84 77 80 73 68 63 59 54 51 47 44 41 39 37 35 39 45
70 65 63 66 76 80 64 54 61 61 66 69 65 57 56 50 62 60 73 92 94 90 84 83 81 74 68 60 56 51 48 44 41 38 35 32 29 29
76 70 64 62 71 81 73 71 69 62 64 66 59 49 34 44 77 89 96 100 86 105 91 84 81 79 73 69 63 56 51 46 42 38 35 32 29 26
77 73 67 63 70 75 75 80 79 72 65 57 55 47 39 39 89 102 99 101 79 95 98 85 81 77 73 69 64 60 55 51 47 44 40 36 33 30
79 73 68 63 64 74 81 80 86 84 78 66 61 45 43 44 84 98 105 102 90 96 87 72 78 73 68 63 60 60 59 56 52 48 44 41 38 35
80 77 71 67 60 69 79 81 86 91 81 75 64 47 48 51 58 88 92 91 94 89 77 77 73 71 67 65 67 69 65 62 59 56 53 50 47 44
76 76 75 69 64 67 80 85 87 85 84 86 84 74 65 53 52 55 69 84 87 69 70 71 75 70 57 66 68 65 67 69 66 66 63 60 59 59
77 77 77 72 69 67 73 81 86 81 81 87 93 95 92 89 76 58 53 52 56 47 59 62 68 73 56 47 56 64 67 66 68 68 68 66 68 70
76 74 73 72 73 73 72 68 73 80 83 85 95 98 95 94 93 90 81 68 52 40 41 49 66 61 59 53 45 35 59 58 66 67 67 72 72 71
71 72 71 74 77 79 81 80 77 82 86 88 91 93 92 86 89 89 86 84 74 62 49 31 41 40 59 55 47 38 41 35 44 50 57 65 75 74
63 67 71 75 79 82 82 87 87 90 89 88 82 76 72 71 80 82 80 84 87 90 83 67 53 56 61 58 54 48 35 33 38 32 29 36 39 49
57 59 67 72 76 80 82 84 84 83 88 86 81 77 76 75 76 72 73 73 83 84 82 74 78 74 75 75 71 66 61 60 54 51 45 43 40 33
59 66 69 72 73 73 75 76 77 78 80 79 80 81 81 81 82 81 78 75 72 67 66 60 59 60 65 75 70 63 57 53 43 40 39 42 44 38
60 63 66 66 68 68 68 69 71 71 68 71 73 75 76 76 76 79 80 80 82 80 77 69 59 45 49 67 60 59 50 47 39 40 41 40 35 34
54 56 59 60 62 63 63 65 67 69 70 71 72 73 73 73 74 76 76 77 75 72 72 70 71 68 67 67 65 58 51 47 44 43 40 37 36 37
46 48 51 53 55 58 57 58 60 64 66 68 69 70 71 72 74 75 73 75 74 74 76 73 66 61 61 59 63 55 52 49 46 44 40 35 32 36
37 40 42 43 44 45 49 50 52 54 56 59 61 61 62 63 66 65 65 67 67 67 68 63 58 58 59 62 62 54 49 46 46 45 44 46 49 43
27 29 32 34 35 35 36 37 40 42 45 46 47 49 48 52 53 52 53 54 53 52 51 50 49 49 52 51 49 47 45 42 42 43 45 43 41 38
Wind_Direction_500mb
9 9 10 12 15 6 349 357 142 113 128 143 148 169 182 175 187 194 216 184 184 183 184 184 183 182 184 184 184 185 185 184 184 184 183 183 183 185
17 19 18 22 28 33 66 101 130 122 115 158 140 162 179 171 171 201 207 183 183 183 184 183 182 182 182 183 184 185 188 188 186 188 187 187 187 189
22 27 22 32 34 50 71 98 109 117 119 132 146 158 167 170 181 188 179 177 183 183 183 183 182 182 181 181 182 183 185 188 191 191 192 193 192 194
24 29 28 35 47 60 75 99 115 119 122 122 141 153 163 173 188 199 176 181 182 184 183 183 183 182 181 180 178 178 182 185 189 192 195 198 198 200
30 30 32 39 49 57 75 100 122 122 125 127 124 146 153 169 173 167 173 180 182 184 185 184 185 184 184 182 180 178 177 180 185 190 194 201 203 206
36 38 40 43 50 56 71 96 111 127 130 139 135 148 165 171 177 185 168 179 182 184 187 185 186 188 188 186 184 183 182 181 181 184 189 196 204 208
42 43 47 52 58 62 70 88 101 109 121 132 131 142 166 188 203 200 181 169 183 186 186 189 187 190 192 191 191 191 190 190 191 191 192 192 198 207
40 43 49 56 63 70 73 80 91 99 102 111 123 135 140 164 154 162 176 175 173 185 187 192 189 190 193 196 197 197 198 198 199 201 203 204 204 208
43 43 47 56 64 71 76 80 88 91 96 100 103 115 124 148 143 159 173 174 172 176 185 191 193 194 195 199 201 204 205 207 208 208 211 214 218 220
49 45 48 53 59 68 72 75 82 84 84 86 88 99 121 124 142 160 170 172 171 178 182 178 190 198 198 203 207 210 213 215 217 219 220 222 224 230
49 50 50 55 61 70 75 79 81 83 87 90 91 96 110 123 122 144 154 164 164 169 173 180 183 192 201 205 210 210 214 218 221 224 226 227 229 232
53 53 53 54 58 65 72 75 77 79 86 92 95 93 94 109 128 127 136 162 158 153 172 180 187 193 192 208 216 218 218 218 222 225 227 229 230 232
54 54 57 56 58 63 69 74 77 81 81 85 89 88 86 86 92 108 124 143 147 147 160 177 178 186 191 192 213 221 222 222 225 227 229 230 232 237
57 59 60 62 64 67 71 76 79 81 82 82 81 81 83 84 83 85 90 97 107 131 156 171 177 186 186 177 181 201 220 230 227 232 232 232 235 237
62 64 65 65 68 71 73 76 77 77 78 77 79 80 82 86 90 90 90 91 93 88 88 131 168 164 174 158 143 143 174 196 206 220 224 228 234 235
63 65 66 66 67 69 70 71 72 74 76 79 80 84 88 89 88 90 92 90 89 86 86 95 118 116 111 110 114 111 125 119 120 143 160 180 196 221
71 71 70 69 68 69 70 72 74 77 79 81 82 84 84 84 84 86 87 88 88 86 85 86 93 98 100 99 93 90 89 95 95 99 106 104 94 94
66 67 67 67 67 67 69 71 72 73 76 79 81 81 82 82 83 83 82 82 84 84 87 88 88 92 90 82 80 80 78 75 73 73 74 78 76 65
66 67 68 68 69 69 70 72 72 74 77 78 78 79 80 82 82 83 82 83 83 82 81 83 79 78 79 74 65 58 55 55 54 55 50 48 44 40
68 70 72 72 73 74 74 75 78 79 77 77 79 80 80 81 81 80 80 82 83 83 81 77 76 75 77 83 80 70 69 64 55 52 42 36 31 24
70 70 71 73 74 74 75 77 77 78 80 80 80 81 81 80 80 82 81 81 80 79 79 77 77 79 82 81 77 69 59 53 50 47 44 42 36 25
67 72 74 74 76 78 78 79 81 82 81 81 82 80 81 81 81 81 81 79 78 78 80 83 82 80 77 74 77 77 72 64 58 51 43 38 33 25
62 65 71 78 79 80 81 82 82 83 85 85 82 80 76 76 77 76 77 78 79 78 76 76 73 71 71 70 68 66 64 61 58 54 49 46 40 31
Wind_Speed_850mb
47 50 48 48 32 22 11 2 6 10 34 62 59 70 85 83 84 84 67 113 105 100 96 88 79 70 66 65 67 68 70 69 67 64 62 59 56 52
54 59 55 56 39 26 19 17 18 24 27 52 72 81 93 78 57 34 57 124 104 101 96 87 78 70 63 59 62 63 64 66 66 65 62 59 56 53
58 65 64 60 52 36 32 33 38 49 65 69 74 75 84 84 57 39 89 114 100 97 92 84 76 70 62 56 55 56 57 57 58 60 61 59 57 54
63 67 70 67 59 44 35 38 46 52 66 69 82 76 78 70 40 38 93 106 96 88 88 82 76 69 62 57 53 51 50 49 50 53 54 55 55 54
62 65 72 76 69 56 41 36 43 53 68 64 81 81 76 70 48 35 77 103 90 84 82 80 74 69 63 59 53 50 47 45 44 44 44 47 49 50
65 64 68 74 78 67 48 47 51 51 58 53 64 71 72 69 49 41 59 101 95 84 77 80 73 68 63 59 54 51 47 44 41 39 37 35 39 45
70 65 63 66 76 80 64 54 61 61 66 69 65 57 56 50 62 60 73 92 94 90 84 83 81 74 68 60 56 51 48 44 41 38 35 32 29 29
76 70 64 62 71 81 73 71 69 62 64 66 59 49 34 44 77 89 96 100 86 105 91 84 81 79 73 69 63 56 51 46 42 38 35 32 29 26
77 73 67 63 70 75 75 80 79 72 65 57 55 47 39 39 89 102 99 101 79 95 98 85 81 77 73 69 64 60 55 51 47 44 40 36 33 30
79 73 68 63 64 74 81 80 86 84 78 66 61 45 43 44 84 98 105 102 90 96 87 72 78 73 68 63 60 60 59 56 52 48 44 41 38 35
80 77 71 67 60 69 79 81 86 91 81 75 64 47 48 51 58 88 92 91 94 89 77 77 73 71 67 65 67 69 65 62 59 56 53 50 47 44
76 76 75 69 64 67 80 85 87 85 84 86 84 74 65 53 52 55 69 84 87 69 70 71 75 70 57 66 68 65 67 69 66 66 63 60 59 59
77 77 77 72 69 67 73 81 86 81 81 87 93 95 92 89 76 58 53 52 56 47 59 62 68 73 56 47 56 64 67 66 68 68 68 66 68 70
76 74 73 72 73 73 72 68 73 80 83 85 95 98 95 94 93 90 81 68 52 40 41 49 66 61 59 53 45 35 59 58 66 67 67 72 72 71
71 72 71 74 77 79 81 80 77 82 86 88 91 93 92 86 89 89 86 84 74 62 49 31 41 40 59 55 47 38 41 35 44 50 57 65 75 74
63 67 71 75 79 82 82 87 87 90 89 88 82 76 72 71 80 82 80 84 87 90 83 67 53 56 61 58 54 48 35 33 38 32 29 36 39 49
57 59 67 72 76 80 82 84 84 83 88 86 81 77 76 75 76 72 73 73 83 84 82 74 78 74 75 75 71 66 61 60 54 51 45 43 40 33
59 66 69 72 73 73 75 76 77 78 80 79 80 81 81 81 82 81 78 75 72 67 66 60 59 60 65 75 70 63 57 53 43 40 39 42 44 38
60 63 66 66 68 68 68 69 71 71 68 71 73 75 76 76 76 79 80 80 82 80 77 69 59 45 49 67 60 59 50 47 39 40 41 40 35 34
54 56 59 60 62 63 63 65 67 69 70 71 72 73 73 73 74 76 76 77 75 72 72 70 71 68 67 67 65 58 51 47 44 43 40 37 36 37
46 48 51 53 55 58 57 58 60 64 66 68 69 70 71 72 74 75 73 75 74 74 76 73 66 61 61 59 63 55 52 49 46 44 40 35 32 36
37 40 42 43 44 45 49 50 52 54 56 59 61 61 62 63 66 65 65 67 67 67 68 63 58 58 59 62 62 54 49 46 46 45 44 46 49 43
27 29 32 34 35 35 36 37 40 42 45 46 47 49 48 52 53 52 53 54 53 52 51 50 49 49 52 51 49 47 45 42 42 43 45 43 41 38
Wind_Direction_850mb
9 9 10 12 15 6 349 357 142 113 128 143 148 169 182 175 187 194 216 184 184 183 184 184 183 182 184 184 184 185 185 184 184 184 183 183 183 185
17 19 18 22 28 33 66 101 130 122 115 158 140 162 179 171 171 201 207 183 183 183 184 183 182 182 182 183 184 185 188 188 186 188 187 187 187 189
22 27 22 32 34 50 71 98 109 117 119 132 146 158 167 170 181 188 179 177 183 183 183 183 182 182 181 181 182 183 185 188 191 191 192 193 192 194
24 29 28 35 47 60 75 99 115 119 122 122 141 153 163 173 188 199 176 181 182 184 183 183 183 182 181 180 178 178 182 185 189 192 195 198 198 200
30 30 32 39 49 57 75 100 122 122 125 127 124 146 153 169 173 167 173 180 182 184 185 184 185 184 184 182 180 178 177 180 185 190 194 201 203 206
36 38 40 43 50 56 71 96 111 127 130 139 135 148 165 171 177 185 168 179 182 184 187 185 186 188 188 186 184 183 182 181 181 184 189 196 204 208
42 43 47 52 58 62 70 88 101 109 121 132 131 142 166 188 203 200 181 169 183 186 186 189 187 190 192 191 191 191 190 190 191 191 192 192 198 207
40 43 49 56 63 70 73 80 91 99 102 111 123 135 140 164 154 162 176 175 173 185 187 192 189 190 193 196 197 197 198 198 199 201 203 204 204 208
43 43 47 56 64 71 76 80 88 91 96 100 103 115 124 148 143 159 173 174 172 176 185 191 193 194 195 199 201 204 205 207 208 208 211 214 218 220
49 45 48 53 59 68 72 75 82 84 84 86 88 99 121 124 142 160 170 172 171 178 182 178 190 198 198 203 207 210 213 215 217 219 220 222 224 230
49 50 50 55 61 70 75 79 81 83 87 90 91 96 110 123 122 144 154 164 164 169 173 180 183 192 201 205 210 210 214 218 221 224 226 227 229 232
53 53 53 54 58 65 72 75 77 79 86 92 95 93 94 109 128 127 136 162 158 153 172 180 187 193 192 208 216 218 218 218 222 225 227 229 230 232
54 54 57 56 58 63 69 74 77 81 81 85 89 88 86 86 92 108 124 143 147 147 160 177 178 186 191 192 213 221 222 222 225 227 229 230 232 237
57 59 60 62 64 67 71 76 79 81 82 82 81 81 83 84 83 85 90 97 107 131 156 171 177 186 186 177 181 201 220 230 227 232 232 232 235 237
62 64 65 65 68 71 73 76 77 77 78 77 79 80 82 86 90 90 90 91 93 88 88 131 168 164 174 158 143 143 174 196 206 220 224 228 234 235
63 65 66 66 67 69 70 71 72 74 76 79 80 84 88 89 88 90 92 90 89 86 86 95 118 116 111 110 114 111 125 119 120 143 160 180 196 221
71 71 70 69 68 69 70 72 74 77 79 81 82 84 84 84 84 86 87 88 88 86 85 86 93 98 100 99 93 90 89 95 95 99 106 104 94 94
66 67 67 67 67 67 69 71 72 73 76 79 81 81 82 82 83 83 82 82 84 84 87 88 88 92 90 82 80 80 78 75 73 73 74 78 76 65
66 67 68 68 69 69 70 72 72 74 77 78 78 79 80 82 82 83 82 83 83 82 81 83 79 78 79 74 65 58 55 55 54 55 50 48 44 40
68 70 72 72 73 74 74 75 78 79 77 77 79 80 80 81 81 80 80 82 83 83 81 77 76 75 77 83 80 70 69 64 55 52 42 36 31 24
70 70 71 73 74 74 75 77 77 78 80 80 80 81 81 80 80 82 81 81 80 79 79 77 77 79 82 81 77 69 59 53 50 47 44 42 36 25
67 72 74 74 76 78 78 79 81 82 81 81 82 80 81 81 81 81 81 79 78 78 80 83 82 80 77 74 77 77 72 64 58 51 43 38 33 25
62 65 71 78 79 80 81 82 82 83 85 85 82 80 76 76 77 76 77 78 79 78 76 76 73 71 71 70 68 66 64 61 58 54 49 46 40 31